Tiempo cada hora Gogaz

Hoy, 24 Noviembre, Martes

Tiempo Temperatura Precipitaciones Viento Presión Humedad
00:00 -10°C° 0 mm 2 mps 583 mmHg 71%
01:00 -10°C° 0 mm 2 mps 583 mmHg 69%
02:00 -10°C° 0 mm 2 mps 583 mmHg 66%
03:00 -12°C° 0 mm 2 mps 583 mmHg 61%
04:00 -10°C° 0 mm 2 mps 583 mmHg 57%
05:00 -9°C° 0 mm 1 mps 583 mmHg 54%
06:00 -9°C° 0 mm 1 mps 583 mmHg 51%
07:00 -8°C° 0 mm 1 mps 584 mmHg 51%
08:00 -6°C° 0 mm 1 mps 584 mmHg 52%
09:00 -4°C° 0 mm 1 mps 585 mmHg 52%
10:00 -3°C° 0 mm 1 mps 585 mmHg 52%
11:00 -2°C° 0 mm 1 mps 585 mmHg 53%
12:00 -1°C° 0 mm 1 mps 585 mmHg 53%
13:00 -1°C° 0 mm 1 mps 584 mmHg 56%
14:00 -1°C° 0 mm 1 mps 584 mmHg 59%
15:00 -2°C° 0 mm 1 mps 583 mmHg 62%
16:00 -3°C° 0 mm 1 mps 582 mmHg 58%
17:00 -5°C° 0 mm 2 mps 582 mmHg 53%
18:00 -6°C° 0 mm 2 mps 582 mmHg 49%
19:00 -6°C° 0 mm 2 mps 581 mmHg 49%
20:00 -6°C° 0 mm 2 mps 581 mmHg 49%
21:00 -5°C° 0 mm 2 mps 581 mmHg 49%
22:00 -5°C° 0 mm 2 mps 581 mmHg 51%
23:00 -5°C° 0 mm 2 mps 581 mmHg 53%

Mañana, 25 Noviembre, Miércoles

Tiempo Temperatura Precipitaciones Viento Presión Humedad
00:00 -5°C° 0 mm 2 mps 581 mmHg 55%
01:00 -5°C° 0 mm 2 mps 580 mmHg 56%
02:00 -5°C° 0 mm 2 mps 580 mmHg 57%
03:00 -5°C° 0 mm 2 mps 580 mmHg 57%
04:00 -5°C° 0 mm 2 mps 580 mmHg 59%
05:00 -4°C° 0 mm 1 mps 579 mmHg 61%
06:00 -4°C° 0 mm 1 mps 579 mmHg 62%
07:00 -4°C° 0 mm 1 mps 580 mmHg 63%
08:00 -3°C° 0 mm 1 mps 580 mmHg 64%
09:00 -2°C° 0 mm 1 mps 581 mmHg 66%
10:00 -2°C° 0 mm 1 mps 581 mmHg 68%
11:00 -4°C° 0 mm 2 mps 581 mmHg 70%
12:00 -3°C° 0 mm 2 mps 581 mmHg 72%
13:00 -4°C° 0 mm 2 mps 581 mmHg 77%
14:00 -4°C° 0 mm 2 mps 581 mmHg 82%
15:00 -5°C° 0 mm 2 mps 580 mmHg 87%
16:00 -6°C° 0.2 mm 2 mps 580 mmHg 89%
17:00 -4°C° 0.2 mm 1 mps 580 mmHg 91%
18:00 -6°C° 0.2 mm 1 mps 580 mmHg 93%
19:00 -6°C° 0.2 mm 1 mps 581 mmHg 92%
20:00 -7°C° 0.2 mm 1 mps 581 mmHg 90%
21:00 -7°C° 0.2 mm 1 mps 581 mmHg 89%
22:00 -8°C° 0 mm 1 mps 581 mmHg 87%
23:00 -8°C° 0 mm 1 mps 580 mmHg 86%

Pasado mañana, 26 Noviembre, Jueves

Tiempo Temperatura Precipitaciones Viento Presión Humedad
00:00 -9°C° 0 mm 2 mps 580 mmHg 84%
01:00 -9°C° 0 mm 2 mps 580 mmHg 82%
02:00 -9°C° 0 mm 2 mps 580 mmHg 80%
03:00 -9°C° 0 mm 2 mps 580 mmHg 78%
04:00 -10°C° 0 mm 2 mps 580 mmHg 79%
05:00 -9°C° 0 mm 1 mps 580 mmHg 79%
06:00 -9°C° 0 mm 1 mps 580 mmHg 79%
07:00 -8°C° 0 mm 1 mps 581 mmHg 80%
08:00 -7°C° 0 mm 1 mps 581 mmHg 81%
09:00 -7°C° 0 mm 1 mps 582 mmHg 81%
10:00 -6°C° 0 mm 1 mps 582 mmHg 82%
11:00 -6°C° 0 mm 1 mps 582 mmHg 84%
12:00 -6°C° 0 mm 2 mps 582 mmHg 85%
13:00 -7°C° 0.2 mm 2 mps 582 mmHg 87%
14:00 -7°C° 0.2 mm 2 mps 582 mmHg 90%
15:00 -7°C° 0.2 mm 2 mps 582 mmHg 92%
16:00 -7°C° 0.3 mm 1 mps 582 mmHg 93%
17:00 -7°C° 0.3 mm 1 mps 581 mmHg 95%
18:00 -8°C° 0.3 mm 1 mps 581 mmHg 96%
19:00 -9°C° 0.1 mm 1 mps 581 mmHg 94%
20:00 -9°C° 0.1 mm 1 mps 581 mmHg 92%
21:00 -9°C° 0.1 mm 1 mps 581 mmHg 90%
22:00 -9°C° 0 mm 1 mps 581 mmHg 88%
23:00 -10°C° 0 mm 1 mps 581 mmHg 85%

27 Noviembre, Viernes

Tiempo Temperatura Precipitaciones Viento Presión Humedad
00:00 -12°C° 0 mm 2 mps 581 mmHg 82%
01:00 -12°C° 0 mm 2 mps 581 mmHg 80%
02:00 -12°C° 0 mm 2 mps 581 mmHg 79%
03:00 -13°C° 0 mm 2 mps 582 mmHg 77%
04:00 -13°C° 0 mm 2 mps 582 mmHg 76%
05:00 -13°C° 0 mm 2 mps 582 mmHg 76%
06:00 -13°C° 0 mm 2 mps 582 mmHg 75%
07:00 -10°C° 0 mm 1 mps 583 mmHg 72%
08:00 -8°C° 0 mm 1 mps 584 mmHg 68%
09:00 -7°C° 0 mm 1 mps 585 mmHg 65%
10:00 -6°C° 0 mm 1 mps 586 mmHg 65%
11:00 -4°C° 0 mm 1 mps 586 mmHg 65%
12:00 -3°C° 0 mm 1 mps 587 mmHg 66%
13:00 -3°C° 0 mm 1 mps 587 mmHg 69%
14:00 -3°C° 0 mm 1 mps 587 mmHg 72%
15:00 -4°C° 0 mm 1 mps 586 mmHg 75%
16:00 -4°C° 0 mm 1 mps 586 mmHg 68%
17:00 -6°C° 0 mm 1 mps 586 mmHg 62%
18:00 -8°C° 0 mm 2 mps 586 mmHg 56%
19:00 -7°C° 0 mm 2 mps 586 mmHg 53%
20:00 -7°C° 0 mm 2 mps 586 mmHg 49%
21:00 -7°C° 0 mm 2 mps 586 mmHg 46%
22:00 -8°C° 0 mm 3 mps 586 mmHg 44%
23:00 -8°C° 0 mm 3 mps 586 mmHg 43%

28 Noviembre, Sábado

Tiempo Temperatura Precipitaciones Viento Presión Humedad
00:00 -8°C° 0 mm 3 mps 586 mmHg 42%
01:00 -8°C° 0 mm 3 mps 586 mmHg 40%
02:00 -8°C° 0 mm 3 mps 586 mmHg 39%
03:00 -8°C° 0 mm 3 mps 586 mmHg 37%
04:00 -7°C° 0 mm 3 mps 586 mmHg 35%
05:00 -7°C° 0 mm 3 mps 585 mmHg 33%
06:00 -7°C° 0 mm 3 mps 585 mmHg 31%
07:00 -6°C° 0 mm 3 mps 586 mmHg 33%
08:00 -4°C° 0 mm 3 mps 587 mmHg 34%
09:00 -2°C° 0 mm 2 mps 587 mmHg 36%
10:00 -1°C° 0 mm 2 mps 587 mmHg 40%
11:00 +2°C° 0 mm 1 mps 588 mmHg 44%
12:00 +3°C° 0 mm 1 mps 588 mmHg 49%
13:00 +3°C° 0 mm 1 mps 587 mmHg 49%
14:00 +2°C° 0 mm 1 mps 587 mmHg 49%
15:00 +1°C° 0 mm 1 mps 586 mmHg 49%
16:00 -2°C° 0 mm 2 mps 586 mmHg 47%
17:00 -3°C° 0 mm 2 mps 585 mmHg 45%
18:00 -4°C° 0 mm 2 mps 585 mmHg 43%
19:00 -4°C° 0 mm 2 mps 585 mmHg 43%
20:00 -5°C° 0 mm 3 mps 585 mmHg 43%
21:00 -5°C° 0 mm 3 mps 585 mmHg 43%
22:00 -5°C° 0 mm 3 mps 584 mmHg 43%
23:00 -5°C° 0 mm 3 mps 584 mmHg 44%

29 Noviembre, Domingo

Tiempo Temperatura Precipitaciones Viento Presión Humedad
00:00 -5°C° 0 mm 3 mps 584 mmHg 44%
01:00 -4°C° 0 mm 2 mps 584 mmHg 45%
02:00 -4°C° 0 mm 2 mps 584 mmHg 46%
03:00 -4°C° 0 mm 2 mps 584 mmHg 47%
04:00 -3°C° 0 mm 2 mps 584 mmHg 47%
05:00 -3°C° 0 mm 2 mps 584 mmHg 48%
06:00 -1°C° 0 mm 1 mps 584 mmHg 48%
07:00 0°C° 0 mm 1 mps 584 mmHg 51%
08:00 0°C° 0 mm 1 mps 585 mmHg 53%
09:00 0°C° 0 mm 0 mps 585 mmHg 56%
10:00 +2°C° 0 mm 1 mps 585 mmHg 58%
11:00 +2°C° 0 mm 1 mps 585 mmHg 60%
12:00 +2°C° 0 mm 1 mps 585 mmHg 62%
13:00 +2°C° 0 mm 1 mps 584 mmHg 63%
14:00 +1°C° 0 mm 1 mps 584 mmHg 63%
15:00 +1°C° 0 mm 1 mps 584 mmHg 64%
16:00 0°C° 0 mm 1 mps 583 mmHg 62%
17:00 -1°C° 0 mm 1 mps 583 mmHg 60%
18:00 -2°C° 0 mm 1 mps 583 mmHg 58%
19:00 -2°C° 0 mm 1 mps 583 mmHg 56%
20:00 -2°C° 0 mm 1 mps 583 mmHg 54%
21:00 -2°C° 0 mm 1 mps 583 mmHg 53%
22:00 -2°C° 0 mm 1 mps 583 mmHg 52%
23:00 -3°C° 0 mm 1 mps 583 mmHg 52%
Mostrar más

Necesitamos Su Consentimiento

Meteoprog y nuestros Proveedores de Servicios pueden almacenar y acceder a sus datos personales como cookies, identificadores de dispositivo u otras tecnologías similares de su dispositivo y procesar dichos datos para personalizar contenido y anuncios, además de ofrecer funciones de redes sociales y analizar el tráfico.

  • Almacenar y/o acceder a información en su dispositivo

    Se puede almacenar o acceder a cookies, identificadores de dispositivo u otra información de su dispositivo para los fines anteriormente indicados.

  • Anuncios y contenido personalizados, medición de anuncios y contenido, percepciones del público, y desarrollo de productos

    Los anuncios y el contenido pueden personalizarse en base a su perfil. Se pueden añadir más datos para personalizar mejor los anuncios y contenidos. Se puede medir el rendimiento de los anuncios y contenidos. Se puede obtener la percepción sobre el público que ha visto los anuncios y contenidos. Dichos datos pueden usarse para desarrollar o mejorar la experiencia del usuario, sistemas y software.

Al hacer clic en ‘Estoy De Acuerdo’ usted permitirá el uso de las cookies, identificadores de dispositivo, balizas web u otras tecnologías similares indicadas. Su configuración puede cambiarse desde el navegador de su dispositivo.

Para ciertos fines, los intereses legítimos pueden ser considerados por encima del consentimiento. Puede leer más sobre ello en nuestra Política de Privacidad y Cookies.